Year,Month,Day,Hour,Minute,Value (Times are PST for temperature in C)
2008,12,02,08,42,9.20
2008,12,02,08,43,9.20
2008,12,02,08,44,9.20
2008,12,02,08,45,9.20
2008,12,02,08,46,9.20
2008,12,02,08,47,9.20
2008,12,02,08,48,9.20
2008,12,02,08,49,9.20
2008,12,02,08,50,9.20
2008,12,02,08,51,9.30
2008,12,02,08,52,9.30
2008,12,02,08,53,9.30
2008,12,02,08,54,9.30
2008,12,02,08,55,9.30
2008,12,02,08,56,9.40
2008,12,02,08,57,9.40
2008,12,02,08,58,9.50
2008,12,02,08,59,9.50
2008,12,02,09,00,9.50
2008,12,02,09,01,9.60
2008,12,02,09,02,9.60
2008,12,02,09,03,9.60
2008,12,02,09,04,9.70
2008,12,02,09,05,9.70
2008,12,02,09,06,9.70
2008,12,02,09,07,9.80
2008,12,02,09,08,9.80
2008,12,02,09,09,9.90
2008,12,02,09,10,9.90
2008,12,02,09,11,10.00
2008,12,02,09,12,10.10
2008,12,02,09,13,10.10
2008,12,02,09,14,10.10
2008,12,02,09,15,10.20
2008,12,02,09,16,10.20
2008,12,02,09,17,10.20
2008,12,02,09,18,10.20
2008,12,02,09,19,10.20
2008,12,02,09,20,10.20
2008,12,02,09,21,10.20
2008,12,02,09,22,10.20
2008,12,02,09,23,10.20
2008,12,02,09,24,10.20
2008,12,02,09,25,10.20
2008,12,02,09,26,10.20
2008,12,02,09,27,10.20
2008,12,02,09,28,10.20
2008,12,02,09,29,10.20
2008,12,02,09,30,10.20
2008,12,02,09,31,10.30
2008,12,02,09,32,10.30
2008,12,02,09,33,10.30
2008,12,02,09,34,10.30
2008,12,02,09,35,10.30
2008,12,02,09,36,10.40
2008,12,02,09,37,10.40
2008,12,02,09,38,10.40
2008,12,02,09,39,10.40
2008,12,02,09,40,10.40
2008,12,02,09,41,10.40
2008,12,02,09,42,10.50
2008,12,02,09,43,10.60
2008,12,02,09,44,10.60
2008,12,02,09,45,10.60
2008,12,02,09,46,10.70
2008,12,02,09,47,10.70
2008,12,02,09,48,10.80
2008,12,02,09,49,10.80
2008,12,02,09,50,10.90
2008,12,02,09,51,10.90
2008,12,02,09,52,11.10
2008,12,02,09,53,11.10
2008,12,02,09,54,11.20
2008,12,02,09,55,11.20
2008,12,02,09,56,11.30
2008,12,02,09,57,11.40
2008,12,02,09,58,11.40
2008,12,02,09,59,11.40
2008,12,02,10,00,11.60
2008,12,02,10,01,11.60
2008,12,02,10,02,11.70
2008,12,02,10,03,11.70
2008,12,02,10,04,11.80
2008,12,02,10,05,11.80
2008,12,02,10,06,11.80
2008,12,02,10,07,11.90
2008,12,02,10,08,11.90
2008,12,02,10,09,11.90
2008,12,02,10,10,12.00
2008,12,02,10,11,12.00
2008,12,02,10,12,12.00
2008,12,02,10,13,12.00
2008,12,02,10,14,12.00
2008,12,02,10,15,12.00
2008,12,02,10,16,12.00
2008,12,02,10,17,12.00
2008,12,02,10,18,12.00
2008,12,02,10,19,12.00
2008,12,02,10,20,12.00
2008,12,02,10,21,11.90
2008,12,02,10,22,11.90
2008,12,02,10,23,11.90
2008,12,02,10,24,11.90
2008,12,02,10,25,11.90
2008,12,02,10,26,11.90
2008,12,02,10,27,12.00
2008,12,02,10,28,12.00
2008,12,02,10,29,11.90
2008,12,02,10,30,11.90
2008,12,02,10,31,11.90
2008,12,02,10,32,11.90
2008,12,02,10,33,11.90
2008,12,02,10,34,11.90
2008,12,02,10,35,12.00
2008,12,02,10,36,12.00
2008,12,02,10,37,12.00
2008,12,02,10,38,12.00
2008,12,02,10,39,12.10
2008,12,02,10,40,12.10
2008,12,02,10,41,12.10
2008,12,02,10,42,12.10
2008,12,02,10,43,12.10
2008,12,02,10,44,12.10
2008,12,02,10,45,12.10
2008,12,02,10,46,12.20
2008,12,02,10,47,12.20
2008,12,02,10,48,12.20
2008,12,02,10,49,12.20
2008,12,02,10,50,12.10
2008,12,02,10,51,12.10
2008,12,02,10,52,12.10
2008,12,02,10,53,12.10
2008,12,02,10,54,12.10
2008,12,02,10,55,12.10
2008,12,02,10,56,12.00
2008,12,02,10,57,12.00
2008,12,02,10,58,12.00
2008,12,02,10,59,12.00
2008,12,02,11,00,12.00
2008,12,02,11,01,12.10
2008,12,02,11,02,12.10
2008,12,02,11,03,12.10
2008,12,02,11,04,12.10
2008,12,02,11,05,12.20
2008,12,02,11,06,12.20
2008,12,02,11,07,12.20
2008,12,02,11,08,12.30
2008,12,02,11,09,12.20
2008,12,02,11,10,12.30
2008,12,02,11,11,12.30
2008,12,02,11,12,12.30
2008,12,02,11,13,12.30
2008,12,02,11,14,12.30
2008,12,02,11,15,12.30
2008,12,02,11,16,12.30
2008,12,02,11,17,12.30
2008,12,02,11,18,12.30
2008,12,02,11,19,12.30
2008,12,02,11,20,12.30
2008,12,02,11,21,12.30
2008,12,02,11,22,12.30
2008,12,02,11,23,12.30
2008,12,02,11,24,12.30
2008,12,02,11,25,12.30
2008,12,02,11,26,12.30
2008,12,02,11,27,12.30
2008,12,02,11,28,12.30
2008,12,02,11,29,12.30
2008,12,02,11,30,12.30
2008,12,02,11,31,12.30
2008,12,02,11,32,12.30
2008,12,02,11,33,12.30
2008,12,02,11,34,12.30
2008,12,02,11,35,12.30
2008,12,02,11,36,12.30
2008,12,02,11,37,12.30
2008,12,02,11,38,12.30
2008,12,02,11,39,12.30
2008,12,02,11,40,12.30
2008,12,02,11,41,12.40
2008,12,02,11,42,12.40
2008,12,02,11,43,12.40
2008,12,02,11,44,12.50
2008,12,02,11,45,12.50
2008,12,02,11,46,12.50
2008,12,02,11,47,12.50
2008,12,02,11,48,12.60
2008,12,02,11,49,12.60
2008,12,02,11,50,12.70
2008,12,02,11,51,12.70
2008,12,02,11,52,12.80
2008,12,02,11,53,12.80
2008,12,02,11,54,12.80
2008,12,02,11,55,12.80
2008,12,02,11,56,12.80
2008,12,02,11,57,12.80
2008,12,02,11,58,12.90
2008,12,02,11,59,12.90
2008,12,02,12,00,12.90
2008,12,02,12,01,13.00
2008,12,02,12,02,13.00
2008,12,02,12,03,13.10
2008,12,02,12,04,13.10
2008,12,02,12,05,13.00
2008,12,02,12,06,13.10
2008,12,02,12,07,13.10
2008,12,02,12,08,13.10
2008,12,02,12,09,13.20
2008,12,02,12,10,13.20
2008,12,02,12,11,13.20
2008,12,02,12,12,13.20
2008,12,02,12,13,13.20
2008,12,02,12,14,13.30
2008,12,02,12,15,13.30
2008,12,02,12,16,13.20
2008,12,02,12,17,13.20
2008,12,02,12,18,13.20
2008,12,02,12,19,13.20
2008,12,02,12,20,13.10
2008,12,02,12,21,13.10
2008,12,02,12,22,13.10
2008,12,02,12,23,13.10
2008,12,02,12,24,13.20
2008,12,02,12,25,13.20
2008,12,02,12,26,13.20
2008,12,02,12,27,13.20
2008,12,02,12,28,13.30
2008,12,02,12,29,13.30
2008,12,02,12,30,13.30
2008,12,02,12,31,13.30
2008,12,02,12,32,13.30
2008,12,02,12,33,13.30
2008,12,02,12,34,13.40
2008,12,02,12,35,13.40
2008,12,02,12,36,13.40
2008,12,02,12,37,13.50
2008,12,02,12,38,13.50
2008,12,02,12,39,13.50
2008,12,02,12,40,13.50
2008,12,02,12,41,13.40
2008,12,02,12,42,13.40
2008,12,02,12,43,13.40
2008,12,02,12,44,13.50
2008,12,02,12,45,13.50
2008,12,02,12,46,13.50
2008,12,02,12,47,13.50
2008,12,02,12,48,13.60
2008,12,02,12,49,13.60
2008,12,02,12,50,13.60
2008,12,02,12,51,13.60
2008,12,02,12,52,13.50
2008,12,02,12,53,13.40
2008,12,02,12,54,13.40
2008,12,02,12,55,13.30
2008,12,02,12,56,13.30
2008,12,02,12,57,13.30
2008,12,02,12,58,13.30
2008,12,02,12,59,13.20
2008,12,02,13,00,13.20
2008,12,02,13,01,13.10
2008,12,02,13,02,13.10
2008,12,02,13,03,13.10
2008,12,02,13,04,13.10
2008,12,02,13,05,13.10
2008,12,02,13,06,13.10
2008,12,02,13,07,13.10
2008,12,02,13,08,13.10
2008,12,02,13,09,13.10
2008,12,02,13,10,13.10
2008,12,02,13,11,13.10
2008,12,02,13,12,13.20
2008,12,02,13,13,13.20
2008,12,02,13,14,13.30
2008,12,02,13,15,13.30
2008,12,02,13,16,13.30
2008,12,02,13,17,13.30
2008,12,02,13,18,13.40
2008,12,02,13,19,13.40
2008,12,02,13,20,13.40
2008,12,02,13,21,13.30
2008,12,02,13,22,13.30
2008,12,02,13,23,13.30
2008,12,02,13,24,13.30
2008,12,02,13,25,13.30
2008,12,02,13,26,13.30
2008,12,02,13,27,13.30
2008,12,02,13,28,13.30
2008,12,02,13,29,13.30
2008,12,02,13,30,13.30
2008,12,02,13,31,13.30
2008,12,02,13,32,13.30
2008,12,02,13,33,13.30
2008,12,02,13,34,13.30
2008,12,02,13,35,13.30
2008,12,02,13,36,13.30
2008,12,02,13,37,13.40
2008,12,02,13,38,13.50
2008,12,02,13,39,13.60
2008,12,02,13,40,13.60
2008,12,02,13,41,13.60
2008,12,02,13,42,13.70
2008,12,02,13,43,13.70
2008,12,02,13,44,13.70
2008,12,02,13,45,13.70
2008,12,02,13,46,13.70
2008,12,02,13,47,13.70
2008,12,02,13,48,13.70
2008,12,02,13,49,13.70
2008,12,02,13,50,13.70
2008,12,02,13,51,13.70
2008,12,02,13,52,13.70
2008,12,02,13,53,13.70
2008,12,02,13,54,13.60
2008,12,02,13,55,13.60
2008,12,02,13,56,13.50
2008,12,02,13,57,13.40
2008,12,02,13,58,13.30
2008,12,02,13,59,13.20
2008,12,02,14,00,13.10
2008,12,02,14,01,13.00
2008,12,02,14,02,12.90
2008,12,02,14,03,12.80
2008,12,02,14,04,12.80
2008,12,02,14,05,12.80
2008,12,02,14,06,12.80
2008,12,02,14,07,12.80
2008,12,02,14,08,12.80
2008,12,02,14,09,12.80
2008,12,02,14,10,12.80
2008,12,02,14,11,12.80
2008,12,02,14,12,12.90
2008,12,02,14,13,12.90
2008,12,02,14,14,12.80
2008,12,02,14,15,12.80
2008,12,02,14,16,12.80
2008,12,02,14,17,12.80
2008,12,02,14,18,12.80
2008,12,02,14,19,12.90
2008,12,02,14,20,12.90
2008,12,02,14,21,12.90
2008,12,02,14,22,12.90
2008,12,02,14,23,13.00
2008,12,02,14,24,13.00
2008,12,02,14,25,12.90
2008,12,02,14,26,12.90
2008,12,02,14,27,12.90
2008,12,02,14,28,12.80
2008,12,02,14,29,12.80
2008,12,02,14,30,12.80
2008,12,02,14,31,12.90
2008,12,02,14,32,12.90
2008,12,02,14,33,12.80
2008,12,02,14,34,12.80
2008,12,02,14,35,12.80
2008,12,02,14,36,12.70
2008,12,02,14,37,12.70
2008,12,02,14,38,12.70
2008,12,02,14,39,12.60
2008,12,02,14,40,12.60
2008,12,02,14,41,12.60
2008,12,02,14,42,12.60
2008,12,02,14,43,12.50
2008,12,02,14,44,12.50
2008,12,02,14,45,12.40
2008,12,02,14,46,12.30
2008,12,02,14,47,12.30
2008,12,02,14,48,12.20
2008,12,02,14,49,12.20
2008,12,02,14,50,12.00
2008,12,02,14,51,11.80
2008,12,02,14,52,11.80
2008,12,02,14,53,11.80
2008,12,02,14,54,11.80
2008,12,02,14,55,11.70
2008,12,02,14,56,11.60
2008,12,02,14,57,11.50
2008,12,02,14,58,11.40
2008,12,02,14,59,11.30
2008,12,02,15,00,11.30
2008,12,02,15,01,11.30
2008,12,02,15,02,11.30
2008,12,02,15,03,11.10
2008,12,02,15,04,11.10
2008,12,02,15,05,11.00
2008,12,02,15,06,10.90
2008,12,02,15,07,10.90
2008,12,02,15,08,10.70
2008,12,02,15,09,10.60
2008,12,02,15,10,10.60
2008,12,02,15,11,10.60
2008,12,02,15,12,10.40
2008,12,02,15,13,10.40
2008,12,02,15,14,10.30
2008,12,02,15,15,10.30
2008,12,02,15,16,10.30
2008,12,02,15,17,10.20
2008,12,02,15,18,10.10
2008,12,02,15,19,10.10
2008,12,02,15,20,10.10
2008,12,02,15,21,10.00
2008,12,02,15,22,9.90
2008,12,02,15,23,9.90
2008,12,02,15,24,9.90
2008,12,02,15,25,9.90
2008,12,02,15,26,9.90
2008,12,02,15,27,9.90
2008,12,02,15,28,9.80
2008,12,02,15,29,9.80
2008,12,02,15,30,9.80
2008,12,02,15,31,9.70
2008,12,02,15,32,9.70
2008,12,02,15,33,9.70
2008,12,02,15,34,9.70
2008,12,02,15,35,9.70
2008,12,02,15,36,9.70
2008,12,02,15,37,9.70
2008,12,02,15,38,9.60
2008,12,02,15,39,9.60
2008,12,02,15,40,9.50
2008,12,02,15,41,9.50
2008,12,02,15,42,9.50
2008,12,02,15,43,9.50
2008,12,02,15,44,9.40
2008,12,02,15,45,9.40
2008,12,02,15,46,9.30
2008,12,02,15,47,9.30
2008,12,02,15,48,9.30
2008,12,02,15,49,9.30
2008,12,02,15,50,9.30
2008,12,02,15,51,9.30
2008,12,02,15,52,9.30
2008,12,02,15,53,9.30
2008,12,02,15,54,9.30
2008,12,02,15,55,9.30
2008,12,02,15,56,9.30
